FFT4206 KONT-KLAS

Flight info

Callsign FFT4206
Flight time 0h 42m
Altitude 27000
Route SNSHN5 MISEN RNDRZ4
Aircraft A321/M-SDE3FGHIRWY/LB1

Departure

Time 2026-05-07 18:43
Airport Ontario International Airport (KONT)

Arrival

Time 2026-05-07 19:25
Airport Harry Reid International Airport (KLAS)
Time Latitude Longitude Altitude Speed Heading
2026-05-07 18:05 34.05984 -117.59582 945 ft 0 kts
2026-05-07 18:31 34.05966 -117.59582 944 ft 4 kts
2026-05-07 18:31 34.05939 -117.59585 945 ft 4 kts 12°
2026-05-07 18:32 34.05913 -117.59595 945 ft 4 kts 32°
2026-05-07 18:32 34.05898 -117.59614 945 ft 3 kts 86°
2026-05-07 18:32 34.05898 -117.59618 945 ft 0 kts 90°
2026-05-07 18:37 34.05898 -117.59573 944 ft 9 kts 90°
2026-05-07 18:37 34.05897 -117.59503 944 ft 8 kts 90°
2026-05-07 18:37 34.05897 -117.59419 944 ft 12 kts 90°
2026-05-07 18:38 34.05897 -117.59326 944 ft 10 kts 90°
2026-05-07 18:38 34.05897 -117.59230 944 ft 14 kts 90°
2026-05-07 18:38 34.05897 -117.59121 945 ft 13 kts 90°
2026-05-07 18:38 34.05898 -117.59010 945 ft 13 kts 89°
2026-05-07 18:39 34.05898 -117.58906 945 ft 12 kts 90°
2026-05-07 18:39 34.05898 -117.58806 945 ft 14 kts 90°
2026-05-07 18:39 34.05898 -117.58689 945 ft 13 kts 90°
2026-05-07 18:39 34.05898 -117.58581 945 ft 12 kts 90°
2026-05-07 18:40 34.05897 -117.58481 945 ft 11 kts 90°
2026-05-07 18:40 34.05898 -117.58388 945 ft 10 kts 90°
2026-05-07 18:40 34.05897 -117.58305 945 ft 9 kts 97°
2026-05-07 18:40 34.05837 -117.58272 945 ft 10 kts 178°
2026-05-07 18:41 34.05799 -117.58272 945 ft 2 kts 180°
2026-05-07 18:41 34.05795 -117.58272 945 ft 0 kts 180°
2026-05-07 18:41 34.05772 -117.58272 945 ft 8 kts 180°
2026-05-07 18:42 34.05706 -117.58285 945 ft 9 kts 216°
2026-05-07 18:42 34.05690 -117.58352 946 ft 12 kts 268°
2026-05-07 18:42 34.05689 -117.58719 946 ft 78 kts 270°
2026-05-07 18:42 34.05690 -117.59624 943 ft 135 kts 270°
2026-05-07 18:43 34.05689 -117.60933 959 ft 175 kts 270°
2026-05-07 18:43 34.05686 -117.62429 1442 ft 177 kts 271°
2026-05-07 18:43 34.05692 -117.63906 2085 ft 175 kts 272°
2026-05-07 18:43 34.05735 -117.65368 2669 ft 174 kts 273°
2026-05-07 18:44 34.05773 -117.66872 2875 ft 192 kts 272°
2026-05-07 18:44 34.05815 -117.68564 3024 ft 211 kts 272°
2026-05-07 18:44 34.05882 -117.70408 3164 ft 229 kts 277°
2026-05-07 18:44 34.06302 -117.72343 3375 ft 246 kts 286°
2026-05-07 18:45 34.06801 -117.74397 3671 ft 263 kts 285°
2026-05-07 18:45 34.07318 -117.76547 4262 ft 269 kts 285°
2026-05-07 18:45 34.07959 -117.78681 4956 ft 274 kts 300°
2026-05-07 18:45 34.09149 -117.80487 5649 ft 277 kts 311°
2026-05-07 18:46 34.10455 -117.82213 6360 ft 279 kts 312°
2026-05-07 18:46 34.11782 -117.83945 7049 ft 282 kts 315°
2026-05-07 18:46 34.13260 -117.85524 7687 ft 285 kts 319°
2026-05-07 18:46 34.14778 -117.87085 8314 ft 288 kts 319°
2026-05-07 18:47 34.15794 -117.88126 8721 ft 290 kts 319°
2026-05-07 18:47 34.17340 -117.89714 9337 ft 293 kts 319°
2026-05-07 18:47 34.18897 -117.91322 9942 ft 296 kts 319°
2026-05-07 18:47 34.20998 -117.93495 10764 ft 301 kts 319°
2026-05-07 18:48 34.22076 -117.94607 10866 ft 315 kts 320°
2026-05-07 18:48 34.23798 -117.95967 10982 ft 334 kts 336°
2026-05-07 18:48 34.26090 -117.96747 11127 ft 353 kts 354°
2026-05-07 18:48 34.28571 -117.96546 11437 ft 363 kts 14°
2026-05-07 18:49 34.30913 -117.95370 11998 ft 367 kts 28°
2026-05-07 18:49 34.33135 -117.93837 12654 ft 369 kts 35°
2026-05-07 18:49 34.35043 -117.91752 13318 ft 372 kts 49°
2026-05-07 18:49 34.36485 -117.89159 14010 ft 373 kts 62°
2026-05-07 18:50 34.37376 -117.86202 14596 ft 377 kts 76°
2026-05-07 18:50 34.37708 -117.83039 15181 ft 381 kts 83°
2026-05-07 18:50 34.37934 -117.79837 15774 ft 383 kts 83°
2026-05-07 18:50 34.38160 -117.76619 16374 ft 385 kts 83°
2026-05-07 18:51 34.38387 -117.73379 16886 ft 387 kts 83°
2026-05-07 18:51 34.38616 -117.70115 17421 ft 390 kts 83°
2026-05-07 18:51 34.38848 -117.66836 17932 ft 392 kts 82°
2026-05-07 18:51 34.39112 -117.63545 18450 ft 393 kts 78°
2026-05-07 18:52 34.39768 -117.60335 18917 ft 393 kts 68°
2026-05-07 18:52 34.40914 -117.57337 19371 ft 393 kts 58°
2026-05-07 18:52 34.42477 -117.54614 19815 ft 395 kts 52°
2026-05-07 18:52 34.44128 -117.51939 20251 ft 398 kts 52°
2026-05-07 18:53 34.45785 -117.49240 20684 ft 401 kts 52°
2026-05-07 18:53 34.47448 -117.46518 21106 ft 403 kts 52°
2026-05-07 18:53 34.49119 -117.43770 21491 ft 407 kts 52°
2026-05-07 18:53 34.50802 -117.41003 21897 ft 409 kts 52°
2026-05-07 18:54 34.52495 -117.38219 22303 ft 411 kts 52°
2026-05-07 18:54 34.54196 -117.35418 22699 ft 414 kts 52°
2026-05-07 18:54 34.55908 -117.32597 23086 ft 416 kts 52°
2026-05-07 18:54 34.57632 -117.29755 23456 ft 419 kts 52°
2026-05-07 18:55 34.59364 -117.26902 23815 ft 421 kts 52°
2026-05-07 18:55 34.61108 -117.24032 24158 ft 424 kts 52°
2026-05-07 18:55 34.62863 -117.21145 24514 ft 426 kts 52°
2026-05-07 18:55 34.64626 -117.18245 24872 ft 428 kts 52°
2026-05-07 18:56 34.66398 -117.15330 25201 ft 430 kts 52°
2026-05-07 18:56 34.68176 -117.12393 25534 ft 433 kts 52°
2026-05-07 18:56 34.69960 -117.09439 25880 ft 434 kts 52°
2026-05-07 18:56 34.71747 -117.06477 26222 ft 436 kts 52°
2026-05-07 18:57 34.73544 -117.03499 26518 ft 438 kts 52°
2026-05-07 18:57 34.75347 -117.00509 26805 ft 440 kts 52°
2026-05-07 18:57 34.77158 -116.97499 27051 ft 442 kts 52°
2026-05-07 18:57 34.78957 -116.94509 27101 ft 434 kts 52°
2026-05-07 18:58 34.80727 -116.91568 27089 ft 429 kts 52°
2026-05-07 18:58 34.82466 -116.88679 27082 ft 428 kts 52°
2026-05-07 18:58 34.84222 -116.85757 27073 ft 428 kts 52°
2026-05-07 18:58 34.85975 -116.82836 27062 ft 428 kts 52°
2026-05-07 18:59 34.87727 -116.79908 27063 ft 428 kts 52°
2026-05-07 18:59 34.89478 -116.76979 27064 ft 428 kts 52°
2026-05-07 18:59 34.91228 -116.74050 27062 ft 428 kts 52°
2026-05-07 18:59 34.92970 -116.71114 27063 ft 428 kts 53°
2026-05-07 19:00 34.94677 -116.68149 27061 ft 428 kts 53°
2026-05-07 19:00 34.96360 -116.65159 27060 ft 428 kts 54°
2026-05-07 19:00 34.98031 -116.62156 27076 ft 429 kts 54°
2026-05-07 19:00 34.99705 -116.59147 27084 ft 429 kts 54°
2026-05-07 19:01 35.01381 -116.56141 27070 ft 428 kts 54°
2026-05-07 19:01 35.03057 -116.53146 27073 ft 427 kts 53°
2026-05-07 19:01 35.04737 -116.50154 27072 ft 427 kts 53°
2026-05-07 19:01 35.06420 -116.47165 27071 ft 427 kts 53°
2026-05-07 19:02 35.08103 -116.44176 27072 ft 427 kts 53°
2026-05-07 19:02 35.09795 -116.41198 27072 ft 427 kts 51°
2026-05-07 19:02 35.11725 -116.38453 27076 ft 426 kts 45°
2026-05-07 19:02 35.13764 -116.35830 27073 ft 426 kts 45°
2026-05-07 19:03 35.15801 -116.33209 26536 ft 427 kts 45°
2026-05-07 19:03 35.17845 -116.30572 25824 ft 426 kts 45°
2026-05-07 19:03 35.19870 -116.27950 25229 ft 422 kts 45°
2026-05-07 19:03 35.21872 -116.25351 24621 ft 418 kts 45°
2026-05-07 19:04 35.23852 -116.22761 23993 ft 416 kts 46°
2026-05-07 19:04 35.25788 -116.20152 23390 ft 412 kts 46°
2026-05-07 19:04 35.27686 -116.17543 22797 ft 409 kts 47°
2026-05-07 19:04 35.29560 -116.14941 22207 ft 406 kts 47°
2026-05-07 19:05 35.31419 -116.12360 21651 ft 402 kts 47°
2026-05-07 19:05 35.33259 -116.09813 21109 ft 397 kts 47°
2026-05-07 19:05 35.35078 -116.07301 20607 ft 391 kts 47°
2026-05-07 19:05 35.36877 -116.04825 20102 ft 386 kts 47°
2026-05-07 19:06 35.38628 -116.02418 19620 ft 381 kts 47°
2026-05-07 19:06 35.42109 -115.97637 18707 ft 371 kts 47°
2026-05-07 19:06 35.43811 -115.95294 18270 ft 366 kts 47°
2026-05-07 19:07 35.45498 -115.92973 17782 ft 363 kts 47°
2026-05-07 19:07 35.47168 -115.90671 17348 ft 359 kts 47°
2026-05-07 19:07 35.48817 -115.88392 16931 ft 356 kts 47°
2026-05-07 19:07 35.50431 -115.86159 16787 ft 343 kts 47°
2026-05-07 19:08 35.51990 -115.84003 16661 ft 331 kts 47°
2026-05-07 19:08 35.53491 -115.81929 16534 ft 320 kts 47°
2026-05-07 19:08 35.54943 -115.79917 16325 ft 311 kts 47°
2026-05-07 19:08 35.56362 -115.77948 16214 ft 306 kts 47°
2026-05-07 19:09 35.57773 -115.75987 16120 ft 307 kts 47°
2026-05-07 19:09 35.59185 -115.74025 15987 ft 306 kts 47°
2026-05-07 19:09 35.60603 -115.72080 15840 ft 305 kts 47°
2026-05-07 19:09 35.62032 -115.70153 15691 ft 305 kts 46°
2026-05-07 19:10 35.63462 -115.68235 15521 ft 304 kts 46°
2026-05-07 19:10 35.64892 -115.66318 15367 ft 304 kts 46°
2026-05-07 19:10 35.66318 -115.64401 15220 ft 303 kts 46°
2026-05-07 19:10 35.67737 -115.62487 15076 ft 303 kts 46°
2026-05-07 19:11 35.69153 -115.60574 14908 ft 302 kts 47°
2026-05-07 19:11 35.70565 -115.58661 14758 ft 302 kts 47°
2026-05-07 19:11 35.71978 -115.56750 14604 ft 301 kts 45°
2026-05-07 19:11 35.73567 -115.55090 14453 ft 300 kts 32°
2026-05-07 19:12 35.75370 -115.53812 14306 ft 299 kts 29°
2026-05-07 19:12 35.77185 -115.52553 14148 ft 299 kts 29°
2026-05-07 19:12 35.78995 -115.51286 14008 ft 299 kts 29°
2026-05-07 19:12 35.80798 -115.50020 13859 ft 298 kts 30°
2026-05-07 19:13 35.82600 -115.48753 13699 ft 298 kts 29°
2026-05-07 19:13 35.84376 -115.47501 13550 ft 298 kts 30°
2026-05-07 19:13 35.86171 -115.46234 13407 ft 297 kts 30°
2026-05-07 19:13 35.87963 -115.44968 13261 ft 297 kts 30°
2026-05-07 19:14 35.89752 -115.43706 13099 ft 296 kts 30°
2026-05-07 19:14 35.91539 -115.42451 12901 ft 296 kts 29°
2026-05-07 19:14 35.93331 -115.41202 12534 ft 295 kts 29°
2026-05-07 19:14 35.95114 -115.39962 12199 ft 293 kts 29°
2026-05-07 19:15 35.96888 -115.38729 11851 ft 292 kts 29°
2026-05-07 19:15 35.98646 -115.37485 11511 ft 291 kts 33°
2026-05-07 19:15 36.00129 -115.35805 11174 ft 291 kts 52°
2026-05-07 19:15 36.01083 -115.33613 10871 ft 292 kts 71°
2026-05-07 19:16 36.01414 -115.31136 10624 ft 295 kts 90°
2026-05-07 19:16 36.01304 -115.28595 10369 ft 296 kts 93°
2026-05-07 19:16 36.01173 -115.26057 10116 ft 296 kts 92°
2026-05-07 19:16 36.01042 -115.23516 9858 ft 296 kts 93°
2026-05-07 19:17 36.00913 -115.20981 9585 ft 295 kts 92°
2026-05-07 19:17 36.00787 -115.18466 9403 ft 288 kts 92°
2026-05-07 19:17 36.00667 -115.16042 9296 ft 276 kts 93°
2026-05-07 19:17 36.00549 -115.13726 9191 ft 264 kts 93°
2026-05-07 19:18 36.00436 -115.11521 9086 ft 253 kts 93°
2026-05-07 19:18 36.00328 -115.09375 8899 ft 249 kts 93°
2026-05-07 19:18 36.00221 -115.07246 8660 ft 247 kts 93°
2026-05-07 19:18 36.00114 -115.05130 8444 ft 247 kts 93°
2026-05-07 19:19 36.00006 -115.03021 8198 ft 246 kts 93°
2026-05-07 19:19 35.99904 -115.00923 7954 ft 244 kts 91°
2026-05-07 19:19 35.99862 -114.98832 7652 ft 242 kts 89°
2026-05-07 19:19 35.99856 -114.96760 7356 ft 241 kts 89°
2026-05-07 19:20 35.99858 -114.94695 7040 ft 239 kts 88°
2026-05-07 19:20 36.00242 -114.92744 6703 ft 234 kts 59°
2026-05-07 19:20 36.01291 -114.91262 6395 ft 228 kts 35°
2026-05-07 19:20 36.02693 -114.90410 6082 ft 224 kts 14°
2026-05-07 19:21 36.04227 -114.90288 5793 ft 221 kts 350°
2026-05-07 19:21 36.05652 -114.90949 5492 ft 220 kts 327°
2026-05-07 19:21 36.06748 -114.92238 5213 ft 219 kts 302°
2026-05-07 19:21 36.07312 -114.93967 4972 ft 219 kts 279°
2026-05-07 19:22 36.07366 -114.95850 4705 ft 220 kts 270°
2026-05-07 19:22 36.07364 -114.97726 4430 ft 214 kts 270°
2026-05-07 19:22 36.07363 -114.99528 4148 ft 203 kts 270°
2026-05-07 19:22 36.07364 -115.01207 3870 ft 188 kts 270°
2026-05-07 19:23 36.07364 -115.02749 3634 ft 170 kts 270°
2026-05-07 19:23 36.07365 -115.04160 3413 ft 161 kts 271°
2026-05-07 19:23 36.07366 -115.05525 3204 ft 157 kts 271°
2026-05-07 19:23 36.07365 -115.06868 2998 ft 156 kts 271°
2026-05-07 19:24 36.07366 -115.08206 2794 ft 156 kts 271°
2026-05-07 19:24 36.07370 -115.09540 2592 ft 155 kts 271°
2026-05-07 19:24 36.07374 -115.10869 2382 ft 155 kts 270°
2026-05-07 19:24 36.07371 -115.12174 2188 ft 154 kts 270°
2026-05-07 19:25 36.07368 -115.13476 2073 ft 140 kts 270°
2026-05-07 19:25 36.07367 -115.14308 2088 ft 53 kts 270°
2026-05-07 19:25 36.07367 -115.14665 2092 ft 39 kts 271°
2026-05-07 19:25 36.07428 -115.14956 2097 ft 33 kts 297°
2026-05-07 19:26 36.07551 -115.15145 2106 ft 22 kts 332°
2026-05-07 19:26 36.07679 -115.15220 2110 ft 20 kts 335°
2026-05-07 19:26 36.07790 -115.15241 2102 ft 16 kts 43°
2026-05-07 19:26 36.07804 -115.15105 2100 ft 17 kts 93°
2026-05-07 19:27 36.07794 -115.14949 2100 ft 21 kts 94°
2026-05-07 19:27 36.07781 -115.14763 2098 ft 22 kts 95°
2026-05-07 19:27 36.07770 -115.14578 2097 ft 21 kts 94°
2026-05-07 19:27 36.07758 -115.14398 2097 ft 21 kts 94°
2026-05-07 19:28 36.07754 -115.14221 2095 ft 21 kts 90°
2026-05-07 19:28 36.07754 -115.14044 2093 ft 20 kts 89°
2026-05-07 19:28 36.07754 -115.13871 2093 ft 20 kts 90°
2026-05-07 19:28 36.07754 -115.13703 2092 ft 19 kts 90°
2026-05-07 19:29 36.07755 -115.13539 2091 ft 19 kts 90°
2026-05-07 19:29 36.07768 -115.13389 2090 ft 15 kts 49°
2026-05-07 19:29 36.07865 -115.13374 2089 ft 14 kts 359°
2026-05-07 19:29 36.07958 -115.13375 2089 ft 13 kts 360°
2026-05-07 19:30 36.08044 -115.13375 2089 ft 12 kts
2026-05-07 19:30 36.08124 -115.13375 2089 ft 12 kts 360°
2026-05-07 19:30 36.08216 -115.13375 2090 ft 14 kts
2026-05-07 19:30 36.08310 -115.13382 2092 ft 13 kts 342°
2026-05-07 19:31 36.08386 -115.13456 2093 ft 14 kts 315°
2026-05-07 19:31 36.08416 -115.13569 2092 ft 15 kts 270°
2026-05-07 19:31 36.08410 -115.13645 2092 ft 4 kts 231°
2026-05-07 19:31 36.08391 -115.13644 2092 ft 2 kts 156°
2026-05-07 19:32 36.08367 -115.13632 2092 ft 6 kts 160°
2026-05-07 19:32 36.08354 -115.13626 2092 ft 3 kts 161°
2026-05-07 19:32 36.08343 -115.13622 2092 ft 0 kts 161°